STARLINK-35297 (66010 NORAD) Tracking and Keplerian Element Data

This shows tracking and keplerian element data for the satellite.

Feedback or suggestion? Click here.




ElementValue
Catalog66010
NameSTARLINK-35297
Epoch Orbit1116
Epoch Day353.62078521
Epoch Year2025
RAAN116.0399
Inclination53.1613
Eccentricity0.0001789
Argument of Perigee65.6178
Mean Anonmoly294.501
Mean Motion15.30197915
Decay Rate0.00017356
L11 66010U 25232F 25353.62078521 .00017356 00000+0 59677-3 0 9994
L22 66010 53.1613 116.0399 0001789 65.6178 294.5010 15.30197915 11162



Live tracking and technical data element details for STARLINK-35297 (NORAD 66010). STARLINK-35297 can be tracked NOW for your location showing map with azimuth and elevation plus other details from your city location.







IsCatalogInMostPopularTable: catalog: 66010, numindb: 4
Update: records affected: 1



GetName: 66010 STARLINK-35297

Hit Count: updated at: Sun, 08 Feb 2026 17:22:32 GMT